This is the latest recevied weather packets stored in our database for station/object KD7MPG-3. If no packets are shown the sender has not sent any weather packets the latest 1 day(s).
| Time | Temp. | Humidity | Pressure | Rain* | Wind** | Luminosity | Snow |
|---|---|---|---|---|---|---|---|
| 1777981704 | 12.22° C | 88% | 1023.7 hPa | 0 mm | 0.45 m/s, 269° | - | - |
| 1777981404 | 12.22° C | 88% | 1023.7 hPa | 0 mm | 0.89 m/s, 213° | - | - |
| 1777981104 | 12.22° C | 88% | 1023.6 hPa | 0 mm | 0.89 m/s, 219° | - | - |
| 1777980805 | 12.22° C | 88% | 1023.7 hPa | 0 mm | 0.45 m/s, 243° | - | - |
| 1777980504 | 12.22° C | 88% | 1023.6 hPa | 0 mm | 0.45 m/s, 161° | - | - |
| 1777980204 | 12.22° C | 88% | 1023.6 hPa | 0 mm | 0.45 m/s, 223° | - | - |
| 1777979903 | 12.22° C | 88% | 1023.6 hPa | 0 mm | 0.45 m/s, 238° | - | - |
| 1777979601 | 12.22° C | 88% | 1023.5 hPa | 0 mm | 0.45 m/s, 207° | - | - |
| 1777979298 | 12.22° C | 88% | 1023.4 hPa | 0 mm | 0.45 m/s, 184° | - | - |
| 1777978998 | 12.22° C | 88% | 1023.5 hPa | 0 mm | 0 m/s | - | - |
| 1777978698 | 12.22° C | 88% | 1023.4 hPa | 0 mm | 0.45 m/s, 206° | - | - |
| 1777978398 | 12.22° C | 88% | 1023.4 hPa | 0 mm | 0.45 m/s, 211° | - | - |
| 1777978095 | 12.22° C | 88% | 1023.3 hPa | 0 mm | 0.45 m/s, 192° | - | - |
| 1777977794 | 12.22° C | 89% | 1023.2 hPa | 0 mm | 0.45 m/s, 128° | - | - |
| 1777977495 | 12.22° C | 89% | 1023.1 hPa | 0 mm | 0.45 m/s, 221° | - | - |
| 1777977194 | 12.22° C | 89% | 1023.2 hPa | 0 mm | 0.45 m/s, 211° | - | - |
| 1777976892 | 12.22° C | 89% | 1023 hPa | 0 mm | 0.45 m/s, 170° | - | - |
| 1777976593 | 12.22° C | 89% | 1023 hPa | 0 mm | 0.45 m/s, 195° | - | - |
| 1777976287 | 12.22° C | 89% | 1023.2 hPa | 0 mm | 0.45 m/s, 176° | - | - |
| 1777975988 | 12.22° C | 89% | 1023.2 hPa | 0 mm | 0.45 m/s, 142° | - | - |
| 1777975688 | 12.22° C | 89% | 1023.1 hPa | 0 mm | 0.45 m/s, 146° | - | - |
| 1777975388 | 12.22° C | 89% | 1023.3 hPa | 0 mm | 0 m/s | - | - |
| 1777975085 | 12.22° C | 89% | 1023.1 hPa | 0 mm | 0 m/s | - | - |
| 1777974787 | 12.22° C | 89% | 1023.2 hPa | 0 mm | 0 m/s | - | - |
| 1777974480 | 12.22° C | 89% | 1023.1 hPa | 0 mm | 0 m/s | - | - |
* Rain latest hour (hover to see other rain measurements)
** Current wind speed in m/s (hover to see current wind gust speed)